User: anonymous   Login
Location: Hamilton
(37.7830°S, 175.2830°E)
Time: 22:55:10
(UTC+13:00)
Language:

Cosmos 1486 Rocket - Orbit

View from above orbital plane
View from above orbital plane
View from above satellite
View from above satellite

Ground track
Ground track

The orbit data is extracted from the following two-line orbital elements,

1 14241U 83079B   19084.68555681  .00000053  00000-0  27119-4 0  9997
2 14241  74.0592 139.8378 0016277  50.3849 309.8737 14.36164092865611
Epoch (UTC): 25 March 2019 16:27:12
Eccentricity: 0.0016277
inclination: 74.0592°
perigee height: 759 km
apogee height: 783 km
right ascension of ascending node: 139.8378°
argument of perigee: 50.3849°
revolutions per day: 14.36164092
mean anomaly at epoch: 309.8737°
orbit number at epoch: 86561

The dashed part of the orbit path shows where the satellite is in the earth's shadow,  

DLR